Time,TemperatureF,DewpointF,PressureIn,WindDirection,WindDirectionDegrees,WindSpeedMPH,WindSpeedGustMPH,Humidity,HourlyPrecipIn,Conditions,Clouds,dailyrainin,SoftwareType,DateUTC
2013-10-08 00:01:00,62.2,57.3,29.86,WNW,293,0.0,3.0,84,0.00,,,0.00,Wunderground v.1.15,2013-10-08 04:01:00,
2013-10-08 00:02:00,62.2,57.6,29.86,NW,311,4.0,4.0,85,0.00,,,0.00,Wunderground v.1.15,2013-10-08 04:02:00,
2013-10-08 00:03:00,62.2,57.6,29.86,NW,310,0.0,4.0,85,0.00,,,0.00,Wunderground v.1.15,2013-10-08 04:03:00,
2013-10-08 00:08:00,62.2,57.6,29.87,West,281,0.0,4.0,85,0.00,,,0.00,Wunderground v.1.15,2013-10-08 04:08:00,
2013-10-08 00:10:00,62.1,57.2,29.88,WNW,299,2.0,2.0,84,0.00,,,0.00,Wunderground v.1.15,2013-10-08 04:10:00,
2013-10-08 00:12:00,62.1,57.2,29.88,WNW,298,0.0,2.0,84,0.00,,,0.00,Wunderground v.1.15,2013-10-08 04:12:00,
2013-10-08 00:17:00,62.0,57.1,29.88,NW,309,4.0,5.0,84,0.00,,,0.00,Wunderground v.1.15,2013-10-08 04:17:00,
2013-10-08 00:22:00,62.0,57.1,29.88,West,280,3.0,3.0,84,0.00,,,0.00,Wunderground v.1.15,2013-10-08 04:22:00,
2013-10-08 00:27:00,61.9,57.0,29.88,NW,326,6.0,8.0,84,0.00,,,0.00,Wunderground v.1.15,2013-10-08 04:27:00,
2013-10-08 00:29:00,61.9,56.7,29.88,NW,309,3.0,3.0,83,0.00,,,0.00,Wunderground v.1.15,2013-10-08 04:29:00,
2013-10-08 00:35:00,61.8,56.6,29.88,NW,309,1.0,4.0,83,0.00,,,0.00,Wunderground v.1.15,2013-10-08 04:35:00,
2013-10-08 00:40:00,61.8,56.9,29.89,WNW,300,1.0,2.0,84,0.00,,,0.00,Wunderground v.1.15,2013-10-08 04:40:00,
2013-10-08 00:45:00,61.8,56.9,29.89,WNW,291,3.0,4.0,84,0.00,,,0.00,Wunderground v.1.15,2013-10-08 04:45:00,
2013-10-08 00:51:00,61.8,56.6,29.89,NW,318,1.0,2.0,83,0.00,,,0.00,Wunderground v.1.15,2013-10-08 04:51:00,
2013-10-08 00:56:00,61.7,56.5,29.89,West,280,0.0,5.0,83,0.00,,,0.00,Wunderground v.1.15,2013-10-08 04:56:00,
2013-10-08 01:01:00,61.6,56.7,29.89,West,269,3.0,3.0,84,0.00,,,0.00,Wunderground v.1.15,2013-10-08 05:01:00,
2013-10-08 01:07:00,61.6,56.4,29.89,West,281,6.0,7.0,83,0.00,,,0.00,Wunderground v.1.15,2013-10-08 05:07:00,
2013-10-08 01:12:00,61.5,56.3,29.89,West,279,4.0,4.0,83,0.00,,,0.00,Wunderground v.1.15,2013-10-08 05:12:00,
2013-10-08 01:18:00,61.3,56.1,29.90,NW,324,1.0,7.0,83,0.00,,,0.00,Wunderground v.1.15,2013-10-08 05:18:00,
2013-10-08 01:23:00,61.2,56.0,29.90,WNW,295,3.0,3.0,83,0.00,,,0.00,Wunderground v.1.15,2013-10-08 05:23:00,
2013-10-08 01:28:00,61.1,55.9,29.90,WNW,283,4.0,6.0,83,0.00,,,0.00,Wunderground v.1.15,2013-10-08 05:28:00,
2013-10-08 01:34:00,60.9,55.7,29.90,WNW,289,4.0,6.0,83,0.00,,,0.00,Wunderground v.1.15,2013-10-08 05:34:00,
2013-10-08 01:40:00,60.7,55.5,29.91,WNW,290,0.0,3.0,83,0.00,,,0.00,Wunderground v.1.15,2013-10-08 05:40:00,
2013-10-08 01:45:00,60.5,55.3,29.91,West,273,2.0,3.0,83,0.00,,,0.00,Wunderground v.1.15,2013-10-08 05:45:00,
2013-10-08 01:50:00,60.4,54.9,29.91,NW,307,0.0,3.0,82,0.00,,,0.00,Wunderground v.1.15,2013-10-08 05:50:00,
2013-10-08 01:56:00,60.2,54.7,29.91,West,280,2.0,6.0,82,0.00,,,0.00,Wunderground v.1.15,2013-10-08 05:56:00,
2013-10-08 02:01:00,60.1,54.6,29.91,West,280,3.0,5.0,82,0.00,,,0.00,Wunderground v.1.15,2013-10-08 06:01:00,
2013-10-08 02:06:00,60.0,54.5,29.91,WNW,286,2.0,9.0,82,0.00,,,0.00,Wunderground v.1.15,2013-10-08 06:06:00,
2013-10-08 02:11:00,59.8,54.0,29.92,WNW,284,4.0,6.0,81,0.00,,,0.00,Wunderground v.1.15,2013-10-08 06:11:00,
2013-10-08 02:16:00,59.7,53.9,29.91,WNW,300,0.0,6.0,81,0.00,,,0.00,Wunderground v.1.15,2013-10-08 06:16:00,
2013-10-08 02:21:00,59.6,53.8,29.92,NW,316,5.0,6.0,81,0.00,,,0.00,Wunderground v.1.15,2013-10-08 06:21:00,
2013-10-08 02:26:00,59.4,53.6,29.92,WNW,283,2.0,10.0,81,0.00,,,0.00,Wunderground v.1.15,2013-10-08 06:26:00,
2013-10-08 02:31:00,59.3,53.5,29.92,West,261,4.0,6.0,81,0.00,,,0.00,Wunderground v.1.15,2013-10-08 06:31:00,
2013-10-08 02:36:00,59.0,52.8,29.92,WNW,294,5.0,9.0,80,0.00,,,0.00,Wunderground v.1.15,2013-10-08 06:36:00,
2013-10-08 02:41:00,59.0,52.8,29.92,WNW,294,3.0,9.0,80,0.00,,,0.00,Wunderground v.1.15,2013-10-08 06:41:00,
2013-10-08 02:46:00,59.0,52.8,29.92,WNW,288,3.0,9.0,80,0.00,,,0.00,Wunderground v.1.15,2013-10-08 06:46:00,
2013-10-08 02:51:00,58.9,52.7,29.92,West,277,4.0,8.0,80,0.00,,,0.00,Wunderground v.1.15,2013-10-08 06:51:00,
2013-10-08 02:56:00,58.7,52.5,29.93,WNW,282,0.0,9.0,80,0.00,,,0.00,Wunderground v.1.15,2013-10-08 06:56:00,
2013-10-08 03:01:00,58.6,52.4,29.93,West,277,1.0,6.0,80,0.00,,,0.00,Wunderground v.1.15,2013-10-08 07:01:00,
2013-10-08 03:07:00,58.4,52.6,29.93,West,275,3.0,6.0,81,0.00,,,0.00,Wunderground v.1.15,2013-10-08 07:07:00,
2013-10-08 03:12:00,58.3,52.5,29.93,West,267,0.0,5.0,81,0.00,,,0.00,Wunderground v.1.15,2013-10-08 07:12:00,
2013-10-08 03:17:00,58.1,52.3,29.94,WNW,294,1.0,7.0,81,0.00,,,0.00,Wunderground v.1.15,2013-10-08 07:17:00,
2013-10-08 03:22:00,58.0,51.9,29.94,NW,315,7.0,7.0,80,0.00,,,0.00,Wunderground v.1.15,2013-10-08 07:22:00,
2013-10-08 03:27:00,57.8,51.7,29.94,West,277,1.0,8.0,80,0.00,,,0.00,Wunderground v.1.15,2013-10-08 07:27:00,
2013-10-08 03:32:00,57.7,51.9,29.94,West,279,4.0,6.0,81,0.00,,,0.00,Wunderground v.1.15,2013-10-08 07:32:00,
2013-10-08 03:37:00,57.5,51.7,29.95,WNW,297,5.0,10.0,81,0.00,,,0.00,Wunderground v.1.15,2013-10-08 07:37:00,
2013-10-08 03:42:00,57.4,51.6,29.95,NW,306,1.0,7.0,81,0.00,,,0.00,Wunderground v.1.15,2013-10-08 07:42:00,
2013-10-08 03:47:00,57.2,51.1,29.95,NW,309,4.0,8.0,80,0.00,,,0.00,Wunderground v.1.15,2013-10-08 07:47:00,
2013-10-08 03:52:00,57.1,51.0,29.96,West,260,4.0,7.0,80,0.00,,,0.00,Wunderground v.1.15,2013-10-08 07:52:00,
2013-10-08 03:57:00,56.9,50.8,29.96,WNW,302,1.0,10.0,80,0.00,,,0.00,Wunderground v.1.15,2013-10-08 07:57:00,
2013-10-08 04:02:00,56.7,50.6,29.96,WSW,240,2.0,11.0,80,0.00,,,0.00,Wunderground v.1.15,2013-10-08 08:02:00,
2013-10-08 04:07:00,56.6,50.5,29.96,WNW,302,2.0,11.0,80,0.00,,,0.00,Wunderground v.1.15,2013-10-08 08:07:00,
2013-10-08 04:12:00,56.6,50.5,29.96,WNW,296,2.0,7.0,80,0.00,,,0.00,Wunderground v.1.15,2013-10-08 08:12:00,
2013-10-08 04:17:00,56.5,50.4,29.97,NW,304,2.0,8.0,80,0.00,,,0.00,Wunderground v.1.15,2013-10-08 08:17:00,
2013-10-08 04:22:00,56.4,50.3,29.97,NW,304,4.0,6.0,80,0.00,,,0.00,Wunderground v.1.15,2013-10-08 08:22:00,
2013-10-08 04:27:00,56.3,50.2,29.97,WNW,282,0.0,6.0,80,0.00,,,0.00,Wunderground v.1.15,2013-10-08 08:27:00,
2013-10-08 04:32:00,56.2,50.1,29.97,WNW,283,1.0,8.0,80,0.00,,,0.00,Wunderground v.1.15,2013-10-08 08:32:00,
2013-10-08 04:37:00,56.1,50.0,29.97,WNW,301,1.0,9.0,80,0.00,,,0.00,Wunderground v.1.15,2013-10-08 08:37:00,
2013-10-08 04:42:00,56.0,49.9,29.97,West,270,2.0,7.0,80,0.00,,,0.00,Wunderground v.1.15,2013-10-08 08:42:00,
2013-10-08 04:47:00,55.9,50.2,29.98,WNW,300,3.0,8.0,81,0.00,,,0.00,Wunderground v.1.15,2013-10-08 08:47:00,
2013-10-08 04:52:00,55.8,49.7,29.98,West,279,0.0,4.0,80,0.00,,,0.00,Wunderground v.1.15,2013-10-08 08:52:00,
2013-10-08 04:57:00,55.8,50.1,29.98,West,281,1.0,4.0,81,0.00,,,0.00,Wunderground v.1.15,2013-10-08 08:57:00,
2013-10-08 05:02:00,55.7,50.0,29.98,West,277,2.0,4.0,81,0.00,,,0.00,Wunderground v.1.15,2013-10-08 09:02:00,
2013-10-08 05:07:00,55.6,49.9,29.99,NW,311,0.0,4.0,81,0.00,,,0.00,Wunderground v.1.15,2013-10-08 09:07:00,
2013-10-08 05:12:00,55.5,49.8,29.99,West,273,7.0,9.0,81,0.00,,,0.00,Wunderground v.1.15,2013-10-08 09:12:00,
2013-10-08 05:17:00,55.4,49.3,29.99,WNW,289,1.0,9.0,80,0.00,,,0.00,Wunderground v.1.15,2013-10-08 09:17:00,
2013-10-08 05:22:00,55.3,49.6,29.99,WNW,283,2.0,4.0,81,0.00,,,0.00,Wunderground v.1.15,2013-10-08 09:22:00,
2013-10-08 05:27:00,55.2,49.5,30.00,WNW,284,1.0,5.0,81,0.00,,,0.00,Wunderground v.1.15,2013-10-08 09:27:00,
2013-10-08 05:32:00,55.1,49.4,30.00,WNW,290,0.0,4.0,81,0.00,,,0.00,Wunderground v.1.15,2013-10-08 09:32:00,
2013-10-08 05:37:00,55.0,49.3,30.00,WNW,285,3.0,4.0,81,0.00,,,0.00,Wunderground v.1.15,2013-10-08 09:37:00,
2013-10-08 05:42:00,54.9,49.2,30.01,WNW,291,3.0,5.0,81,0.00,,,0.00,Wunderground v.1.15,2013-10-08 09:42:00,
2013-10-08 05:48:00,54.8,49.1,30.01,West,279,2.0,5.0,81,0.00,,,0.00,Wunderground v.1.15,2013-10-08 09:48:00,
2013-10-08 05:53:00,54.7,49.0,30.01,West,269,3.0,4.0,81,0.00,,,0.00,Wunderground v.1.15,2013-10-08 09:53:00,
2013-10-08 05:58:00,54.6,49.2,30.01,WNW,297,3.0,10.0,82,0.00,,,0.00,Wunderground v.1.15,2013-10-08 09:58:00,
2013-10-08 06:03:00,54.5,49.1,30.01,West,264,0.0,7.0,82,0.00,,,0.00,Wunderground v.1.15,2013-10-08 10:03:00,
2013-10-08 06:08:00,54.4,49.0,30.02,WNW,289,3.0,7.0,82,0.00,,,0.00,Wunderground v.1.15,2013-10-08 10:08:00,
2013-10-08 06:13:00,54.3,48.9,30.02,West,277,0.0,5.0,82,0.00,,,0.00,Wunderground v.1.15,2013-10-08 10:13:00,
2013-10-08 06:21:00,54.1,48.7,30.03,West,259,6.0,6.0,82,0.00,,,0.00,Wunderground v.1.15,2013-10-08 10:21:00,
2013-10-08 06:26:00,54.0,48.6,30.03,WNW,284,0.0,6.0,82,0.00,,,0.00,Wunderground v.1.15,2013-10-08 10:26:00,
2013-10-08 06:31:00,53.9,48.5,30.03,West,275,5.0,5.0,82,0.00,,,0.00,Wunderground v.1.15,2013-10-08 10:31:00,
2013-10-08 06:36:00,53.8,48.4,30.04,WNW,302,2.0,6.0,82,0.00,,,0.00,Wunderground v.1.15,2013-10-08 10:36:00,
2013-10-08 06:41:00,53.7,48.3,30.04,WNW,291,2.0,6.0,82,0.00,,,0.00,Wunderground v.1.15,2013-10-08 10:41:00,
2013-10-08 06:46:00,53.6,48.2,30.04,West,264,3.0,8.0,82,0.00,,,0.00,Wunderground v.1.15,2013-10-08 10:46:00,
2013-10-08 06:51:00,53.6,48.2,30.05,WSW,256,1.0,3.0,82,0.00,,,0.00,Wunderground v.1.15,2013-10-08 10:51:00,
2013-10-08 06:56:00,53.6,48.6,30.05,West,281,4.0,7.0,83,0.00,,,0.00,Wunderground v.1.15,2013-10-08 10:56:00,
2013-10-08 07:01:00,53.5,48.5,30.06,WNW,290,2.0,4.0,83,0.00,,,0.00,Wunderground v.1.15,2013-10-08 11:01:00,
2013-10-08 07:06:00,53.5,48.5,30.06,WNW,299,4.0,7.0,83,0.00,,,0.00,Wunderground v.1.15,2013-10-08 11:06:00,
2013-10-08 07:11:00,53.4,48.4,30.06,West,275,4.0,4.0,83,0.00,,,0.00,Wunderground v.1.15,2013-10-08 11:11:00,
2013-10-08 07:17:00,53.4,48.4,30.07,WSW,250,1.0,5.0,83,0.00,,,0.00,Wunderground v.1.15,2013-10-08 11:17:00,
2013-10-08 07:22:00,53.5,48.5,30.07,WNW,300,4.0,7.0,83,0.00,,,0.00,Wunderground v.1.15,2013-10-08 11:22:00,
2013-10-08 07:27:00,53.5,48.5,30.08,WNW,288,4.0,7.0,83,0.00,,,0.00,Wunderground v.1.15,2013-10-08 11:27:00,
2013-10-08 07:32:00,53.5,48.5,30.08,WNW,288,2.0,3.0,83,0.00,,,0.00,Wunderground v.1.15,2013-10-08 11:32:00,
2013-10-08 07:37:00,53.6,48.6,30.08,WNW,298,3.0,8.0,83,0.00,,,0.00,Wunderground v.1.15,2013-10-08 11:37:00,
2013-10-08 07:42:00,53.7,48.7,30.08,NW,323,5.0,8.0,83,0.00,,,0.00,Wunderground v.1.15,2013-10-08 11:42:00,
2013-10-08 07:47:00,53.9,48.9,30.08,NW,309,1.0,10.0,83,0.00,,,0.00,Wunderground v.1.15,2013-10-08 11:47:00,
2013-10-08 07:52:00,54.0,49.0,30.08,West,261,4.0,7.0,83,0.00,,,0.00,Wunderground v.1.15,2013-10-08 11:52:00,
2013-10-08 07:57:00,54.1,49.1,30.08,NW,322,0.0,7.0,83,0.00,,,0.00,Wunderground v.1.15,2013-10-08 11:57:00,
2013-10-08 08:02:00,54.2,48.8,30.09,WSW,251,6.0,7.0,82,0.00,,,0.00,Wunderground v.1.15,2013-10-08 12:02:00,
2013-10-08 08:07:00,54.3,48.9,30.09,West,281,5.0,7.0,82,0.00,,,0.00,Wunderground v.1.15,2013-10-08 12:07:00,
2013-10-08 08:12:00,54.3,48.9,30.10,West,277,1.0,6.0,82,0.00,,,0.00,Wunderground v.1.15,2013-10-08 12:12:00,
2013-10-08 08:17:00,54.3,48.9,30.10,West,264,6.0,8.0,82,0.00,,,0.00,Wunderground v.1.15,2013-10-08 12:17:00,
2013-10-08 08:22:00,54.4,49.0,30.10,NW,306,4.0,7.0,82,0.00,,,0.00,Wunderground v.1.15,2013-10-08 12:22:00,
2013-10-08 08:27:00,54.6,48.9,30.11,NW,316,6.0,10.0,81,0.00,,,0.00,Wunderground v.1.15,2013-10-08 12:27:00,
2013-10-08 08:32:00,54.8,49.1,30.10,NW,319,0.0,12.0,81,0.00,,,0.00,Wunderground v.1.15,2013-10-08 12:32:00,
2013-10-08 08:37:00,55.0,48.9,30.11,WNW,299,6.0,12.0,80,0.00,,,0.00,Wunderground v.1.15,2013-10-08 12:37:00,
2013-10-08 08:42:00,55.3,48.6,30.11,NNW,345,6.0,12.0,78,0.00,,,0.00,Wunderground v.1.15,2013-10-08 12:42:00,
2013-10-08 08:47:00,55.7,48.9,30.12,NW,325,5.0,12.0,78,0.00,,,0.00,Wunderground v.1.15,2013-10-08 12:47:00,
2013-10-08 08:52:00,56.0,49.6,30.11,WNW,303,3.0,12.0,79,0.00,,,0.00,Wunderground v.1.15,2013-10-08 12:52:00,
2013-10-08 08:57:00,56.3,49.2,30.12,NNW,329,8.0,12.0,77,0.00,,,0.00,Wunderground v.1.15,2013-10-08 12:57:00,
2013-10-08 09:02:00,56.5,49.0,30.12,NW,311,7.0,7.0,76,0.00,,,0.00,Wunderground v.1.15,2013-10-08 13:02:00,
2013-10-08 09:07:00,56.8,49.3,30.12,WNW,302,3.0,9.0,76,0.00,,,0.00,Wunderground v.1.15,2013-10-08 13:07:00,
2013-10-08 09:12:00,57.1,49.6,30.13,NW,309,13.0,16.0,76,0.00,,,0.00,Wunderground v.1.15,2013-10-08 13:12:00,
2013-10-08 09:17:00,57.3,48.7,30.13,NW,317,13.0,18.0,73,0.00,,,0.00,Wunderground v.1.15,2013-10-08 13:17:00,
2013-10-08 09:22:00,57.6,49.0,30.13,NW,319,9.0,20.0,73,0.00,,,0.00,Wunderground v.1.15,2013-10-08 13:22:00,
2013-10-08 09:27:00,57.8,48.8,30.14,NNW,328,3.0,20.0,72,0.00,,,0.00,Wunderground v.1.15,2013-10-08 13:27:00,
2013-10-08 09:32:00,58.0,48.6,30.13,NW,313,8.0,12.0,71,0.00,,,0.00,Wunderground v.1.15,2013-10-08 13:32:00,
2013-10-08 09:37:00,58.2,48.8,30.14,NW,319,4.0,14.0,71,0.00,,,0.00,Wunderground v.1.15,2013-10-08 13:37:00,
2013-10-08 09:42:00,58.4,48.3,30.14,NW,311,4.0,14.0,69,0.00,,,0.00,Wunderground v.1.15,2013-10-08 13:42:00,
2013-10-08 09:47:00,58.5,48.4,30.14,NNW,337,15.0,17.0,69,0.00,,,0.00,Wunderground v.1.15,2013-10-08 13:47:00,
2013-10-08 09:52:00,58.7,48.6,30.14,NW,308,8.0,13.0,69,0.00,,,0.00,Wunderground v.1.15,2013-10-08 13:52:00,
2013-10-08 09:57:00,59.0,48.1,30.14,NNW,327,11.0,20.0,67,0.00,,,0.00,Wunderground v.1.15,2013-10-08 13:57:00,
2013-10-08 10:03:00,59.0,47.7,30.15,North,355,10.0,11.0,66,0.00,,,0.00,Wunderground v.1.15,2013-10-08 14:03:00,
2013-10-08 10:08:00,59.0,48.1,30.15,WNW,288,7.0,14.0,67,0.00,,,0.00,Wunderground v.1.15,2013-10-08 14:08:00,
2013-10-08 10:13:00,59.2,48.6,30.15,WNW,293,11.0,13.0,68,0.00,,,0.00,Wunderground v.1.15,2013-10-08 14:13:00,
2013-10-08 10:18:00,59.4,48.8,30.15,WNW,303,4.0,13.0,68,0.00,,,0.00,Wunderground v.1.15,2013-10-08 14:18:00,
2013-10-08 10:23:00,59.5,48.9,30.15,NW,322,3.0,11.0,68,0.00,,,0.00,Wunderground v.1.15,2013-10-08 14:23:00,
2013-10-08 10:28:00,59.5,47.3,30.15,NW,316,7.0,15.0,64,0.00,,,0.00,Wunderground v.1.15,2013-10-08 14:28:00,
2013-10-08 10:33:00,59.7,48.3,30.15,NNW,348,5.0,13.0,66,0.00,,,0.00,Wunderground v.1.15,2013-10-08 14:33:00,
2013-10-08 10:38:00,59.8,48.4,30.16,North,360,6.0,13.0,66,0.00,,,0.00,Wunderground v.1.15,2013-10-08 14:38:00,
2013-10-08 10:43:00,59.9,48.9,30.16,WNW,291,12.0,12.0,67,0.00,,,0.00,Wunderground v.1.15,2013-10-08 14:43:00,
2013-10-08 10:48:00,60.0,47.8,30.16,WNW,299,11.0,14.0,64,0.00,,,0.00,Wunderground v.1.15,2013-10-08 14:48:00,
2013-10-08 10:53:00,60.1,48.3,30.16,NNW,330,7.0,14.0,65,0.00,,,0.00,Wunderground v.1.15,2013-10-08 14:53:00,
2013-10-08 10:58:00,60.2,48.0,30.16,NNE,15,5.0,14.0,64,0.00,,,0.00,Wunderground v.1.15,2013-10-08 14:58:00,
2013-10-08 11:03:00,60.2,47.6,30.16,North,355,6.0,15.0,63,0.00,,,0.00,Wunderground v.1.15,2013-10-08 15:03:00,
2013-10-08 11:08:00,60.3,47.6,30.16,NNW,327,8.0,15.0,63,0.00,,,0.00,Wunderground v.1.15,2013-10-08 15:08:00,
2013-10-08 11:13:00,60.4,48.2,30.16,NNE,12,6.0,12.0,64,0.00,,,0.00,Wunderground v.1.15,2013-10-08 15:13:00,
2013-10-08 11:18:00,60.6,47.9,30.16,NNW,337,9.0,12.0,63,0.00,,,0.00,Wunderground v.1.15,2013-10-08 15:18:00,
2013-10-08 11:23:00,60.8,49.4,30.16,WNW,300,8.0,12.0,66,0.00,,,0.00,Wunderground v.1.15,2013-10-08 15:23:00,
2013-10-08 11:28:00,60.9,49.1,30.16,NW,324,5.0,12.0,65,0.00,,,0.00,Wunderground v.1.15,2013-10-08 15:28:00,
2013-10-08 11:33:00,61.2,48.5,30.16,NW,309,3.0,10.0,63,0.00,,,0.00,Wunderground v.1.15,2013-10-08 15:33:00,
2013-10-08 11:38:00,61.4,49.1,30.16,North,360,5.0,11.0,64,0.00,,,0.00,Wunderground v.1.15,2013-10-08 15:38:00,
2013-10-08 11:43:00,61.5,48.8,30.17,NNW,333,7.0,11.0,63,0.00,,,0.00,Wunderground v.1.15,2013-10-08 15:43:00,
2013-10-08 11:48:00,61.6,48.9,30.17,WNW,293,5.0,11.0,63,0.00,,,0.00,Wunderground v.1.15,2013-10-08 15:48:00,
2013-10-08 11:53:00,61.6,48.0,30.16,NW,315,6.0,12.0,61,0.00,,,0.00,Wunderground v.1.15,2013-10-08 15:53:00,
2013-10-08 11:58:00,61.6,48.0,30.16,NNW,333,10.0,14.0,61,0.00,,,0.00,Wunderground v.1.15,2013-10-08 15:58:00,
2013-10-08 12:03:00,61.7,48.1,30.17,NNW,346,3.0,11.0,61,0.00,,,0.00,Wunderground v.1.15,2013-10-08 16:03:00,
2013-10-08 12:08:00,61.7,48.5,30.17,NW,311,10.0,13.0,62,0.00,,,0.00,Wunderground v.1.15,2013-10-08 16:08:00,
2013-10-08 12:13:00,61.8,48.2,30.16,North,360,4.0,13.0,61,0.00,,,0.00,Wunderground v.1.15,2013-10-08 16:13:00,
2013-10-08 12:18:00,61.8,48.2,30.17,North,350,8.0,13.0,61,0.00,,,0.00,Wunderground v.1.15,2013-10-08 16:18:00,
2013-10-08 12:23:00,62.0,48.4,30.17,NW,320,8.0,14.0,61,0.00,,,0.00,Wunderground v.1.15,2013-10-08 16:23:00,
2013-10-08 12:28:00,62.0,49.3,30.17,NNW,340,6.0,14.0,63,0.00,,,0.00,Wunderground v.1.15,2013-10-08 16:28:00,
2013-10-08 12:33:00,62.1,48.0,30.17,NNW,333,10.0,10.0,60,0.00,,,0.00,Wunderground v.1.15,2013-10-08 16:33:00,
2013-10-08 12:38:00,62.2,48.1,30.17,WNW,299,6.0,13.0,60,0.00,,,0.00,Wunderground v.1.15,2013-10-08 16:38:00,
2013-10-08 12:43:00,62.2,47.7,30.17,West,277,5.0,9.0,59,0.00,,,0.00,Wunderground v.1.15,2013-10-08 16:43:00,
2013-10-08 12:48:00,62.2,47.2,30.16,NNW,347,4.0,13.0,58,0.00,,,0.00,Wunderground v.1.15,2013-10-08 16:48:00,
2013-10-08 12:53:00,62.2,48.1,30.17,NNW,347,10.0,12.0,60,0.00,,,0.00,Wunderground v.1.15,2013-10-08 16:53:00,
2013-10-08 12:58:00,62.4,48.3,30.17,NNW,333,7.0,13.0,60,0.00,,,0.00,Wunderground v.1.15,2013-10-08 16:58:00,
2013-10-08 13:03:00,62.5,47.5,30.17,NNW,331,7.0,10.0,58,0.00,,,0.00,Wunderground v.1.15,2013-10-08 17:03:00,
2013-10-08 13:08:00,62.6,47.6,30.17,NNW,348,4.0,10.0,58,0.00,,,0.00,Wunderground v.1.15,2013-10-08 17:08:00,
2013-10-08 13:13:00,62.8,47.8,30.17,North,360,6.0,14.0,58,0.00,,,0.00,Wunderground v.1.15,2013-10-08 17:13:00,
2013-10-08 13:18:00,62.9,47.0,30.16,NW,319,6.0,14.0,56,0.00,,,0.00,Wunderground v.1.15,2013-10-08 17:18:00,
2013-10-08 13:24:00,62.9,48.3,30.16,NNW,348,3.0,11.0,59,0.00,,,0.00,Wunderground v.1.15,2013-10-08 17:24:00,
2013-10-08 13:29:00,62.9,47.0,30.16,NW,318,12.0,12.0,56,0.00,,,0.00,Wunderground v.1.15,2013-10-08 17:29:00,
2013-10-08 13:34:00,63.0,47.1,30.16,North,350,6.0,11.0,56,0.00,,,0.00,Wunderground v.1.15,2013-10-08 17:34:00,
2013-10-08 13:39:00,63.0,47.1,30.16,North,9,6.0,11.0,56,0.00,,,0.00,Wunderground v.1.15,2013-10-08 17:39:00,
2013-10-08 13:44:00,63.1,46.7,30.16,NW,325,11.0,12.0,55,0.00,,,0.00,Wunderground v.1.15,2013-10-08 17:44:00,
2013-10-08 13:49:00,63.2,46.8,30.16,NW,315,9.0,12.0,55,0.00,,,0.00,Wunderground v.1.15,2013-10-08 17:49:00,
2013-10-08 13:54:00,63.2,46.8,30.16,NW,308,2.0,12.0,55,0.00,,,0.00,Wunderground v.1.15,2013-10-08 17:54:00,
2013-10-08 13:59:00,63.3,47.3,30.16,NNW,337,5.0,12.0,56,0.00,,,0.00,Wunderground v.1.15,2013-10-08 17:59:00,
2013-10-08 14:04:00,63.3,46.9,30.16,North,5,10.0,13.0,55,0.00,,,0.00,Wunderground v.1.15,2013-10-08 18:04:00,
2013-10-08 14:09:00,63.4,46.5,30.15,NNW,336,8.0,13.0,54,0.00,,,0.00,Wunderground v.1.15,2013-10-08 18:09:00,
2013-10-08 14:14:00,63.5,46.6,30.15,NNW,348,8.0,13.0,54,0.00,,,0.00,Wunderground v.1.15,2013-10-08 18:14:00,
2013-10-08 14:19:00,63.6,47.6,30.15,NNW,337,8.0,13.0,56,0.00,,,0.00,Wunderground v.1.15,2013-10-08 18:19:00,
2013-10-08 14:24:00,63.6,47.1,30.16,NNE,27,6.0,12.0,55,0.00,,,0.00,Wunderground v.1.15,2013-10-08 18:24:00,
2013-10-08 14:29:00,63.6,46.6,30.16,NW,309,9.0,12.0,54,0.00,,,0.00,Wunderground v.1.15,2013-10-08 18:29:00,
2013-10-08 14:34:00,63.6,46.1,30.16,NNW,332,8.0,12.0,53,0.00,,,0.00,Wunderground v.1.15,2013-10-08 18:34:00,
2013-10-08 14:39:00,63.6,46.1,30.17,North,9,7.0,12.0,53,0.00,,,0.00,Wunderground v.1.15,2013-10-08 18:39:00,
2013-10-08 14:44:00,63.6,46.1,30.17,NW,321,7.0,9.0,53,0.00,,,0.00,Wunderground v.1.15,2013-10-08 18:44:00,
2013-10-08 14:49:00,63.7,46.2,30.17,NW,312,9.0,13.0,53,0.00,,,0.00,Wunderground v.1.15,2013-10-08 18:49:00,
2013-10-08 14:54:00,63.7,46.2,30.17,NNW,327,5.0,11.0,53,0.00,,,0.00,Wunderground v.1.15,2013-10-08 18:54:00,
2013-10-08 15:00:00,63.7,45.7,30.17,NW,306,2.0,5.0,52,0.00,,,0.00,Wunderground v.1.15,2013-10-08 19:00:00,
2013-10-08 15:05:00,63.7,47.2,30.17,WNW,296,4.0,11.0,55,0.00,,,0.00,Wunderground v.1.15,2013-10-08 19:05:00,
2013-10-08 15:10:00,63.8,46.3,30.17,NNE,20,5.0,6.0,53,0.00,,,0.00,Wunderground v.1.15,2013-10-08 19:10:00,
2013-10-08 15:15:00,63.8,45.8,30.17,North,10,7.0,11.0,52,0.00,,,0.00,Wunderground v.1.15,2013-10-08 19:15:00,
2013-10-08 15:20:00,63.9,46.4,30.17,North,9,1.0,6.0,53,0.00,,,0.00,Wunderground v.1.15,2013-10-08 19:20:00,
2013-10-08 15:25:00,64.0,46.5,30.18,NNW,342,8.0,12.0,53,0.00,,,0.00,Wunderground v.1.15,2013-10-08 19:25:00,
2013-10-08 15:30:00,64.0,46.5,30.18,NNW,346,7.0,11.0,53,0.00,,,0.00,Wunderground v.1.15,2013-10-08 19:30:00,
2013-10-08 15:35:00,64.1,46.6,30.18,North,9,8.0,13.0,53,0.00,,,0.00,Wunderground v.1.15,2013-10-08 19:35:00,
2013-10-08 15:40:00,64.1,46.1,30.18,NNE,18,3.0,6.0,52,0.00,,,0.00,Wunderground v.1.15,2013-10-08 19:40:00,
2013-10-08 15:45:00,64.1,45.6,30.18,NNW,336,7.0,11.0,51,0.00,,,0.00,Wunderground v.1.15,2013-10-08 19:45:00,
2013-10-08 15:50:00,64.1,46.1,30.18,NNW,328,5.0,7.0,52,0.00,,,0.00,Wunderground v.1.15,2013-10-08 19:50:00,
2013-10-08 15:55:00,64.1,45.6,30.19,NNW,346,2.0,10.0,51,0.00,,,0.00,Wunderground v.1.15,2013-10-08 19:55:00,
2013-10-08 16:00:00,64.0,46.5,30.19,West,273,3.0,6.0,53,0.00,,,0.00,Wunderground v.1.15,2013-10-08 20:00:00,
2013-10-08 16:05:00,63.9,46.9,30.18,NW,319,3.0,9.0,54,0.00,,,0.00,Wunderground v.1.15,2013-10-08 20:05:00,
2013-10-08 16:10:00,63.8,45.8,30.19,NNE,18,9.0,11.0,52,0.00,,,0.00,Wunderground v.1.15,2013-10-08 20:10:00,
2013-10-08 16:15:00,63.7,45.7,30.19,NW,318,1.0,11.0,52,0.00,,,0.00,Wunderground v.1.15,2013-10-08 20:15:00,
2013-10-08 16:20:00,63.7,45.2,30.20,NW,310,4.0,6.0,51,0.00,,,0.00,Wunderground v.1.15,2013-10-08 20:20:00,
2013-10-08 16:25:00,63.6,44.6,30.20,NNE,13,8.0,13.0,50,0.00,,,0.00,Wunderground v.1.15,2013-10-08 20:25:00,
2013-10-08 16:30:00,63.7,45.2,30.20,North,355,2.0,5.0,51,0.00,,,0.00,Wunderground v.1.15,2013-10-08 20:30:00,
2013-10-08 16:35:00,63.7,44.2,30.20,NNW,330,4.0,10.0,49,0.00,,,0.00,Wunderground v.1.15,2013-10-08 20:35:00,
2013-10-08 16:40:00,63.7,45.2,30.20,NNE,14,3.0,7.0,51,0.00,,,0.00,Wunderground v.1.15,2013-10-08 20:40:00,
2013-10-08 16:45:00,63.7,44.2,30.20,North,360,4.0,9.0,49,0.00,,,0.00,Wunderground v.1.15,2013-10-08 20:45:00,
2013-10-08 16:50:00,63.6,44.6,30.21,NNW,342,7.0,7.0,50,0.00,,,0.00,Wunderground v.1.15,2013-10-08 20:50:00,
2013-10-08 16:55:00,63.5,44.5,30.21,NNW,329,3.0,14.0,50,0.00,,,0.00,Wunderground v.1.15,2013-10-08 20:55:00,
2013-10-08 17:00:00,63.4,44.4,30.21,NW,314,4.0,6.0,50,0.00,,,0.00,Wunderground v.1.15,2013-10-08 21:00:00,
2013-10-08 17:05:00,63.3,44.3,30.21,NNW,344,5.0,9.0,50,0.00,,,0.00,Wunderground v.1.15,2013-10-08 21:05:00,
2013-10-08 17:10:00,63.3,44.3,30.22,NW,304,5.0,5.0,50,0.00,,,0.00,Wunderground v.1.15,2013-10-08 21:10:00,
2013-10-08 17:15:00,63.2,44.8,30.22,North,355,6.0,8.0,51,0.00,,,0.00,Wunderground v.1.15,2013-10-08 21:15:00,
2013-10-08 17:20:00,63.1,45.2,30.22,NNW,327,5.0,5.0,52,0.00,,,0.00,Wunderground v.1.15,2013-10-08 21:20:00,
2013-10-08 17:25:00,62.9,45.0,30.22,NNW,334,2.0,8.0,52,0.00,,,0.00,Wunderground v.1.15,2013-10-08 21:25:00,
2013-10-08 17:30:00,62.7,45.3,30.22,North,355,5.0,7.0,53,0.00,,,0.00,Wunderground v.1.15,2013-10-08 21:30:00,
2013-10-08 17:35:00,62.6,45.7,30.23,NNW,329,2.0,7.0,54,0.00,,,0.00,Wunderground v.1.15,2013-10-08 21:35:00,
2013-10-08 17:40:00,62.4,45.0,30.23,North,355,6.0,6.0,53,0.00,,,0.00,Wunderground v.1.15,2013-10-08 21:40:00,
2013-10-08 17:45:00,62.2,44.9,30.23,NNW,333,2.0,6.0,53,0.00,,,0.00,Wunderground v.1.15,2013-10-08 21:45:00,
2013-10-08 17:50:00,62.0,45.2,30.23,North,360,5.0,6.0,54,0.00,,,0.00,Wunderground v.1.15,2013-10-08 21:50:00,
2013-10-08 17:55:00,61.8,45.5,30.23,North,350,4.0,6.0,55,0.00,,,0.00,Wunderground v.1.15,2013-10-08 21:55:00,
2013-10-08 18:00:00,61.6,44.8,30.23,North,350,3.0,9.0,54,0.00,,,0.00,Wunderground v.1.15,2013-10-08 22:00:00,
2013-10-08 18:05:00,61.4,44.6,30.23,NNW,331,4.0,9.0,54,0.00,,,0.00,Wunderground v.1.15,2013-10-08 22:05:00,
2013-10-08 18:10:00,61.2,43.9,30.23,NNW,342,3.0,6.0,53,0.00,,,0.00,Wunderground v.1.15,2013-10-08 22:10:00,
2013-10-08 18:15:00,61.0,44.2,30.24,NNE,25,3.0,6.0,54,0.00,,,0.00,Wunderground v.1.15,2013-10-08 22:15:00,
2013-10-08 18:20:00,60.8,44.0,30.24,NNE,32,0.0,2.0,54,0.00,,,0.00,Wunderground v.1.15,2013-10-08 22:20:00,
2013-10-08 18:25:00,60.6,44.3,30.24,NNE,18,1.0,4.0,55,0.00,,,0.00,Wunderground v.1.15,2013-10-08 22:25:00,
2013-10-08 18:30:00,60.4,43.7,30.24,NNE,18,1.0,2.0,54,0.00,,,0.00,Wunderground v.1.15,2013-10-08 22:30:00,
2013-10-08 18:35:00,60.2,44.4,30.24,NE,40,1.0,4.0,56,0.00,,,0.00,Wunderground v.1.15,2013-10-08 22:35:00,
2013-10-08 18:40:00,60.1,44.3,30.24,NNE,33,1.0,2.0,56,0.00,,,0.00,Wunderground v.1.15,2013-10-08 22:40:00,
2013-10-08 18:45:00,59.9,44.6,30.24,NNE,33,0.0,4.0,57,0.00,,,0.00,Wunderground v.1.15,2013-10-08 22:45:00,
2013-10-08 18:50:00,59.6,44.3,30.25,NNE,33,2.0,3.0,57,0.00,,,0.00,Wunderground v.1.15,2013-10-08 22:50:00,
2013-10-08 18:55:00,59.5,44.7,30.25,North,9,2.0,6.0,58,0.00,,,0.00,Wunderground v.1.15,2013-10-08 22:55:00,
2013-10-08 19:00:00,59.2,44.9,30.25,North,10,2.0,4.0,59,0.00,,,0.00,Wunderground v.1.15,2013-10-08 23:00:00,
2013-10-08 19:05:00,59.0,43.8,30.25,North,351,2.0,5.0,57,0.00,,,0.00,Wunderground v.1.15,2013-10-08 23:05:00,
2013-10-08 19:10:00,59.0,43.8,30.25,North,360,4.0,6.0,57,0.00,,,0.00,Wunderground v.1.15,2013-10-08 23:10:00,
2013-10-08 19:15:00,59.0,43.8,30.25,North,355,3.0,6.0,57,0.00,,,0.00,Wunderground v.1.15,2013-10-08 23:15:00,
2013-10-08 19:20:00,58.7,43.5,30.26,NNE,15,3.0,5.0,57,0.00,,,0.00,Wunderground v.1.15,2013-10-08 23:20:00,
2013-10-08 19:25:00,58.6,43.9,30.25,North,360,1.0,6.0,58,0.00,,,0.00,Wunderground v.1.15,2013-10-08 23:25:00,
2013-10-08 19:30:00,58.4,43.7,30.26,NE,42,3.0,4.0,58,0.00,,,0.00,Wunderground v.1.15,2013-10-08 23:30:00,
2013-10-08 19:35:00,58.3,44.0,30.26,NE,42,4.0,4.0,59,0.00,,,0.00,Wunderground v.1.15,2013-10-08 23:35:00,
2013-10-08 19:40:00,58.2,43.5,30.26,NE,38,0.0,2.0,58,0.00,,,0.00,Wunderground v.1.15,2013-10-08 23:40:00,
2013-10-08 19:45:00,58.0,43.7,30.26,NE,39,1.0,3.0,59,0.00,,,0.00,Wunderground v.1.15,2013-10-08 23:45:00,
2013-10-08 19:50:00,57.9,44.1,30.27,NE,39,0.0,2.0,60,0.00,,,0.00,Wunderground v.1.15,2013-10-08 23:50:00,
2013-10-08 19:55:00,57.8,44.9,30.27,NE,39,2.0,2.0,62,0.00,,,0.00,Wunderground v.1.15,2013-10-08 23:55:00,
2013-10-08 20:00:00,57.7,45.2,30.27,NE,38,3.0,3.0,63,0.00,,,0.00,Wunderground v.1.15,2013-10-09 00:00:00,
2013-10-08 20:05:00,57.4,45.3,30.27,North,360,2.0,4.0,64,0.00,,,0.00,Wunderground v.1.15,2013-10-09 00:05:00,
2013-10-08 20:10:00,57.1,45.0,30.27,North,360,0.0,2.0,64,0.00,,,0.00,Wunderground v.1.15,2013-10-09 00:10:00,
2013-10-08 20:15:00,56.9,44.8,30.27,North,360,1.0,2.0,64,0.00,,,0.00,Wunderground v.1.15,2013-10-09 00:15:00,
2013-10-08 20:20:00,56.7,45.1,30.28,North,360,0.0,0.0,65,0.00,,,0.00,Wunderground v.1.15,2013-10-09 00:20:00,
2013-10-08 20:25:00,56.5,45.3,30.28,North,360,2.0,3.0,66,0.00,,,0.00,Wunderground v.1.15,2013-10-09 00:25:00,
2013-10-08 20:30:00,56.2,45.8,30.28,NNW,340,3.0,3.0,68,0.00,,,0.00,Wunderground v.1.15,2013-10-09 00:30:00,
2013-10-08 20:35:00,56.0,45.6,30.29,NNW,340,1.0,3.0,68,0.00,,,0.00,Wunderground v.1.15,2013-10-09 00:35:00,
2013-10-08 20:40:00,55.8,45.4,30.29,NNW,340,2.0,2.0,68,0.00,,,0.00,Wunderground v.1.15,2013-10-09 00:40:00,
2013-10-08 20:45:00,55.5,45.1,30.29,NNW,340,0.0,3.0,68,0.00,,,0.00,Wunderground v.1.15,2013-10-09 00:45:00,
2013-10-08 20:50:00,55.3,44.9,30.29,NNW,340,3.0,3.0,68,0.00,,,0.00,Wunderground v.1.15,2013-10-09 00:50:00,
2013-10-08 20:55:00,54.9,44.9,30.29,NNW,333,2.0,4.0,69,0.00,,,0.00,Wunderground v.1.15,2013-10-09 00:55:00,
2013-10-08 21:00:00,54.6,44.6,30.29,NNW,333,1.0,2.0,69,0.00,,,0.00,Wunderground v.1.15,2013-10-09 01:00:00,
2013-10-08 21:05:00,54.4,44.4,30.29,NNW,333,1.0,4.0,69,0.00,,,0.00,Wunderground v.1.15,2013-10-09 01:05:00,
2013-10-08 21:10:00,54.2,44.2,30.29,NNW,333,0.0,3.0,69,0.00,,,0.00,Wunderground v.1.15,2013-10-09 01:10:00,
2013-10-08 21:15:00,54.0,44.1,30.29,NNW,333,3.0,3.0,69,0.00,,,0.00,Wunderground v.1.15,2013-10-09 01:15:00,
2013-10-08 21:20:00,53.8,44.2,30.30,NNW,331,0.0,1.0,70,0.00,,,0.00,Wunderground v.1.15,2013-10-09 01:20:00,
2013-10-08 21:25:00,53.7,44.1,30.30,NNW,333,4.0,4.0,70,0.00,,,0.00,Wunderground v.1.15,2013-10-09 01:25:00,
2013-10-08 21:30:00,53.6,44.0,30.30,NNW,330,0.0,2.0,70,0.00,,,0.00,Wunderground v.1.15,2013-10-09 01:30:00,
2013-10-08 21:35:00,53.5,44.3,30.30,NNW,329,2.0,3.0,71,0.00,,,0.00,Wunderground v.1.15,2013-10-09 01:35:00,
2013-10-08 21:41:00,53.2,44.0,30.30,NNW,342,1.0,3.0,71,0.00,,,0.00,Wunderground v.1.15,2013-10-09 01:41:00,
2013-10-08 21:46:00,53.1,43.9,30.30,NNW,342,0.0,3.0,71,0.00,,,0.00,Wunderground v.1.15,2013-10-09 01:46:00,
2013-10-08 21:51:00,52.9,44.1,30.30,NNW,327,2.0,2.0,72,0.00,,,0.00,Wunderground v.1.15,2013-10-09 01:51:00,
2013-10-08 21:56:00,52.8,43.7,30.31,NNW,327,3.0,3.0,71,0.00,,,0.00,Wunderground v.1.15,2013-10-09 01:56:00,
2013-10-08 22:01:00,52.6,43.5,30.31,North,360,1.0,3.0,71,0.00,,,0.00,Wunderground v.1.15,2013-10-09 02:01:00,
2013-10-08 22:06:00,52.4,43.3,30.31,North,360,1.0,4.0,71,0.00,,,0.00,Wunderground v.1.15,2013-10-09 02:06:00,
2013-10-08 22:11:00,52.4,43.3,30.31,North,360,1.0,2.0,71,0.00,,,0.00,Wunderground v.1.15,2013-10-09 02:11:00,
2013-10-08 22:16:00,52.4,43.3,30.31,NNW,337,3.0,6.0,71,0.00,,,0.00,Wunderground v.1.15,2013-10-09 02:16:00,
2013-10-08 22:21:00,52.3,43.5,30.32,NNW,347,5.0,6.0,72,0.00,,,0.00,Wunderground v.1.15,2013-10-09 02:21:00,
2013-10-08 22:26:00,52.2,43.1,30.32,NNW,329,3.0,6.0,71,0.00,,,0.00,Wunderground v.1.15,2013-10-09 02:26:00,
2013-10-08 22:31:00,52.1,43.0,30.32,NNW,333,1.0,4.0,71,0.00,,,0.00,Wunderground v.1.15,2013-10-09 02:31:00,
2013-10-08 22:35:00,52.1,42.6,30.32,NNW,337,2.0,4.0,70,0.00,,,0.00,Wunderground v.1.15,2013-10-09 02:35:00,
2013-10-08 22:40:00,52.1,42.6,30.32,North,355,2.0,5.0,70,0.00,,,0.00,Wunderground v.1.15,2013-10-09 02:40:00,
2013-10-08 22:45:00,52.1,42.6,30.32,NW,323,2.0,5.0,70,0.00,,,0.00,Wunderground v.1.15,2013-10-09 02:45:00,
2013-10-08 22:51:00,52.1,42.6,30.32,North,350,2.0,3.0,70,0.00,,,0.00,Wunderground v.1.15,2013-10-09 02:51:00,
2013-10-08 22:56:00,52.0,42.9,30.33,North,351,2.0,5.0,71,0.00,,,0.00,Wunderground v.1.15,2013-10-09 02:56:00,
2013-10-08 23:01:00,52.0,42.9,30.33,NNW,346,3.0,4.0,71,0.00,,,0.00,Wunderground v.1.15,2013-10-09 03:01:00,
2013-10-08 23:06:00,52.0,42.9,30.33,NNW,337,2.0,5.0,71,0.00,,,0.00,Wunderground v.1.15,2013-10-09 03:06:00,
2013-10-08 23:11:00,51.9,42.8,30.33,NNW,338,3.0,4.0,71,0.00,,,0.00,Wunderground v.1.15,2013-10-09 03:11:00,
2013-10-08 23:16:00,51.8,42.7,30.33,NNW,343,3.0,4.0,71,0.00,,,0.00,Wunderground v.1.15,2013-10-09 03:16:00,
2013-10-08 23:21:00,51.8,42.7,30.33,NNW,343,2.0,3.0,71,0.00,,,0.00,Wunderground v.1.15,2013-10-09 03:21:00,
2013-10-08 23:26:00,51.7,42.6,30.33,North,355,2.0,5.0,71,0.00,,,0.00,Wunderground v.1.15,2013-10-09 03:26:00,
2013-10-08 23:31:00,51.6,42.5,30.33,North,355,3.0,5.0,71,0.00,,,0.00,Wunderground v.1.15,2013-10-09 03:31:00,
2013-10-08 23:36:00,51.5,42.4,30.33,North,10,3.0,5.0,71,0.00,,,0.00,Wunderground v.1.15,2013-10-09 03:36:00,
2013-10-08 23:41:00,51.5,42.4,30.34,North,360,1.0,3.0,71,0.00,,,0.00,Wunderground v.1.15,2013-10-09 03:41:00,
2013-10-08 23:46:00,51.5,42.4,30.33,NNE,26,3.0,5.0,71,0.00,,,0.00,Wunderground v.1.15,2013-10-09 03:46:00,
2013-10-08 23:51:00,51.5,42.4,30.33,North,355,1.0,3.0,71,0.00,,,0.00,Wunderground v.1.15,2013-10-09 03:51:00,
2013-10-08 23:56:00,51.5,42.4,30.34,North,360,1.0,7.0,71,0.00,,,0.00,Wunderground v.1.15,2013-10-09 03:56:00,